Volver al catálogo

COSMOS 457

ActivoMilitarLEO
NORAD 5614·PAYLOAD·🇷🇺 Russia

Lanzado Nov 20, 1971 desde Plesetsk Cosmodrome

Loading…

Próximos Pases (próximas 24 horas)

TLE

ActualizadoSource: Space-Track

Época: Sep 14, 2026, 09:18 UTC

1 05614U 71099A   26257.38755525 -.00000334  00000-0 -82763-3 0  9995
2 05614  74.0326 236.4493 0022418 123.3733  42.2113 13.16117531633295

Sigue COSMOS 457 en tiempo real con AllMySat

Download on the App Store